Rome, NY

4:25 AM EST on February 28, 2017 (GMT -0500)
Griffiss

Weather History for KRME - November, 2013

Change the Weather History Date:

Tuesday, November 26, 2013

  Actual Average Record
Temperature  
Mean Temperature 31 °F -  
Max Temperature 34 °F 42 °F 59 °F (2011)
Min Temperature 28 °F 27 °F 14 °F (1993)
Degree Days  
Heating Degree Days 34    
Moisture  
Dew Point 27 °F    
Average Humidity 84    
Maximum Humidity 92    
Minimum Humidity 50    
Precipitation  
Precipitation 0.49 in - - ()
Sea Level Pressure  
Sea Level Pressure 30.12 in    
Wind  
Wind Speed 8 mph (ESE)    
Max Wind Speed 10 mph    
Max Gust Speed 20 mph    
Visibility 6 miles    
Events Rain , Snow    
Averages and records for this station are not official NWS values.
T = Trace of Precipitation, MM = Missing Value Source: NWS Daily Summary

Daily Weather History Graph

Daily Weather History Graph

Search for Another Location

Airport or City:

Trip Planner

Search our weather history database for the weather conditions in past years. The results will help you decide how hot, cold, wet, or windy it might be!

Date:

Astronomy

Nov. 26, 2013 Rise Set
Actual Time 7:08 AM EST 4:29 PM EST
Civil Twilight 6:36 AM EST 5:00 PM EST
Nautical Twilight 6:01 AM EST 5:36 PM EST
Astronomical Twilight 5:27 AM EST 6:10 PM EST
Moon No Moon Rise 12:44 PM EST (11/26)
Length of Visible Light 10h 24m
Length of Day
9h 20m
Last Quarter, 41% of the Moon is Illuminated
Nov 26
Last Quarter
Dec 2
New
Dec 9
First Quarter
Dec 17
Full
Dec 25
Last Quarter

Hourly Weather History & Observations

Time (EST) Temp. Windchill Dew Point Humidity Pressure Visibility Wind Dir Wind Speed Gust Speed Precip Events Conditions
12:53 AM 30.0 °F 21.1 °F 17.1 °F 59% 30.19 in 10.0 mi SW 10.4 mph 19.6 mph N/A   Overcast
1:53 AM 30.9 °F 22.2 °F 14.0 °F 50% 30.20 in 10.0 mi SSW 10.4 mph - N/A   Overcast
2:53 AM 28.9 °F 21.1 °F 19.9 °F 69% 30.20 in 10.0 mi South 8.1 mph - N/A   Overcast
3:53 AM 28.9 °F 25.2 °F 21.0 °F 72% 30.20 in 10.0 mi ESE 3.5 mph - N/A   Overcast
4:53 AM 28.9 °F 22.8 °F 21.9 °F 75% 30.20 in 10.0 mi SE 5.8 mph - 0.00 in Snow Light Snow
5:53 AM 28.0 °F 20.8 °F 24.1 °F 85% 30.20 in 10.0 mi East 6.9 mph - 0.00 in   Overcast
6:53 AM 28.9 °F 22.8 °F 24.1 °F 82% 30.23 in 10.0 mi East 5.8 mph - N/A   Overcast
7:53 AM 28.9 °F 21.9 °F 24.1 °F 82% 30.24 in 10.0 mi ESE 6.9 mph - 0.00 in   Overcast
8:13 AM 30.0 °F 23.2 °F 24.1 °F 79% 30.23 in 10.0 mi ESE 6.9 mph - N/A   Overcast
8:25 AM 30.0 °F 23.2 °F 24.1 °F 79% 30.23 in 10.0 mi ESE 6.9 mph - N/A   Overcast
8:53 AM 30.0 °F 22.4 °F 24.1 °F 79% 30.24 in 10.0 mi East 8.1 mph - N/A   Overcast
9:28 AM 30.0 °F 21.7 °F 24.1 °F 79% 30.23 in 10.0 mi East 9.2 mph - N/A   Overcast
9:53 AM 30.9 °F 22.8 °F 25.0 °F 79% 30.24 in 10.0 mi ESE 9.2 mph - N/A   Overcast
10:43 AM 32.0 °F 25.6 °F 25.0 °F 75% 30.19 in 10.0 mi ESE 6.9 mph - N/A   Overcast
10:53 AM 32.0 °F 25.6 °F 25.0 °F 75% 30.21 in 10.0 mi ESE 6.9 mph - N/A   Overcast
11:53 AM 33.1 °F 26.9 °F 25.0 °F 72% 30.21 in 10.0 mi ESE 6.9 mph - N/A   Overcast
12:09 PM 33.1 °F 26.9 °F 26.1 °F 75% 30.19 in 10.0 mi East 6.9 mph - N/A   Overcast
12:53 PM 34.0 °F 27.2 °F 26.1 °F 73% 30.19 in 10.0 mi SE 8.1 mph - N/A   Overcast
1:16 PM 33.1 °F 25.5 °F 27.0 °F 78% 30.18 in 1.8 mi SE 9.2 mph - 0.00 in Snow Light Snow
1:28 PM 33.1 °F 26.1 °F 28.0 °F 82% 30.18 in 1.0 mi SSE 8.1 mph - 0.00 in Snow Light Snow
1:53 PM 32.0 °F 26.4 °F 28.9 °F 88% 30.18 in 1.2 mi SE 5.8 mph - 0.00 in Snow Light Snow
2:11 PM 32.0 °F 25.6 °F 30.0 °F 92% 30.16 in 1.0 mi ESE 6.9 mph - 0.00 in Snow Light Snow
2:41 PM 32.0 °F 24.8 °F 30.0 °F 92% 30.16 in 2.5 mi ESE 8.1 mph - 0.01 in Snow Light Snow
2:53 PM 32.0 °F 24.8 °F 30.0 °F 92% 30.17 in 1.2 mi SE 8.1 mph - 0.01 in Snow Light Snow
3:46 PM 32.0 °F 25.6 °F 30.0 °F 92% 30.13 in 1.0 mi ESE 6.9 mph - 0.01 in Snow Light Snow
3:53 PM 32.0 °F 24.8 °F 30.0 °F 92% 30.14 in 0.8 mi ESE 8.1 mph - 0.01 in Snow Light Snow
4:30 PM 32.0 °F 24.8 °F 30.0 °F 92% 30.10 in 1.0 mi ESE 8.1 mph - 0.02 in Snow Light Snow
4:53 PM 32.0 °F 25.6 °F 30.0 °F 92% 30.12 in 1.0 mi ESE 6.9 mph - 0.04 in Snow Light Snow
5:53 PM 32.0 °F 24.8 °F 30.0 °F 92% 30.10 in 1.0 mi ESE 8.1 mph - 0.04 in Snow Light Snow
6:01 PM 32.0 °F 24.8 °F 30.0 °F 92% 30.08 in 0.8 mi ESE 8.1 mph - 0.00 in Snow Light Snow
6:09 PM 32.0 °F 25.6 °F 30.0 °F 92% 30.07 in 0.8 mi ESE 6.9 mph - 0.01 in Snow Light Snow
6:17 PM 32.0 °F 25.6 °F 30.0 °F 92% 30.07 in 1.0 mi ESE 6.9 mph - 0.02 in Snow Light Snow
6:26 PM 32.0 °F 24.2 °F 30.0 °F 92% 30.07 in 1.0 mi ESE 9.2 mph - 0.03 in Snow Light Snow
6:53 PM 32.0 °F 24.2 °F 30.0 °F 92% 30.07 in 1.0 mi ESE 9.2 mph - 0.05 in Snow Light Snow
7:21 PM 32.0 °F 25.6 °F 30.0 °F 92% 30.03 in 3.0 mi ESE 6.9 mph - 0.03 in Snow Light Snow
7:53 PM 32.0 °F 24.8 °F 30.0 °F 92% 30.04 in 6.0 mi ESE 8.1 mph - 0.06 in   Overcast
8:03 PM 32.0 °F 24.2 °F 30.0 °F 92% 30.01 in 6.0 mi ESE 9.2 mph - 0.00 in   Overcast
8:20 PM 33.1 °F 24.9 °F 30.0 °F 89% 29.99 in 6.0 mi ESE 10.4 mph - 0.02 in   Overcast
8:26 PM 33.1 °F 26.9 °F 30.9 °F 92% 29.99 in 6.0 mi ESE 6.9 mph - 0.02 in Rain Rain
8:53 PM 33.1 °F 25.5 °F 30.9 °F 92% 29.99 in 7.0 mi ESE 9.2 mph - 0.04 in Rain Light Rain
9:44 PM 33.1 °F 25.5 °F 30.9 °F 92% 29.95 in 5.0 mi ESE 9.2 mph - 0.04 in Rain Rain
9:53 PM 33.1 °F 26.1 °F 30.9 °F 92% 29.96 in 5.0 mi SE 8.1 mph - 0.05 in Rain Rain
10:31 PM 33.1 °F 26.9 °F 30.9 °F 92% 29.91 in 5.0 mi ESE 6.9 mph - 0.07 in Rain Rain
10:53 PM 33.1 °F 26.9 °F 30.9 °F 92% 29.92 in 6.0 mi ESE 6.9 mph - 0.10 in Rain Rain
11:22 PM 33.1 °F 28.7 °F 30.9 °F 92% 29.89 in 6.0 mi ESE 4.6 mph - 0.03 in Rain Rain
11:53 PM 33.1 °F - 30.9 °F 92% 29.88 in 5.0 mi Calm Calm - 0.09 in Rain Rain